Andrews, TX

5:57 PM CDT on May 23, 2017 (GMT -0500)
Andrews

Weather History for KE11 - March, 2013

Change the Weather History Date:

Wednesday, March 27, 2013

  Actual Average (KMAF) Record (KMAF)
Temperature  
Mean Temperature 60 °F -  
Max Temperature 78 °F 68 °F 95 °F (1971)
Min Temperature 41 °F 44 °F 14 °F (1931)
Degree Days  
Heating Degree Days 6    
Growing Degree Days 10 (Base 50)    
Moisture  
Dew Point 30 °F    
Average Humidity 36    
Maximum Humidity 63    
Minimum Humidity 16    
Precipitation  
Precipitation 0.00 in - - ()
Sea Level Pressure  
Sea Level Pressure 30.06 in    
Wind  
Wind Speed 11 mph (South)    
Max Wind Speed 17 mph    
Max Gust Speed 24 mph    
Visibility 10 miles    
Events      
Averages and records for this station are not official NWS values.
T = Trace of Precipitation, MM = Missing Value Source: NWS Daily Summary

Daily Weather History Graph

Daily Weather History Graph

Search for Another Location

Airport or City:

Trip Planner

Search our weather history database for the weather conditions in past years. The results will help you decide how hot, cold, wet, or windy it might be!

Date:

Astronomy

Mar. 27, 2013 Rise Set
Actual Time 7:44 AM CDT 8:06 PM CDT
Civil Twilight 7:19 AM CDT 8:31 PM CDT
Nautical Twilight 6:51 AM CDT 9:00 PM CDT
Astronomical Twilight 6:21 AM CDT 9:29 PM CDT
Moon 8:47 PM CDT (3/27) 7:39 AM CDT (3/27)
Length of Visible Light 13h 11m
Length of Day
12h 22m
Full, 100% of the Moon is Illuminated
Mar 27
Full
Apr 2
Last Quarter
Apr 10
New
Apr 18
First Quarter
Apr 25
Full

Hourly Weather History & Observations

Time (CDT) Temp. Windchill Dew Point Humidity Pressure Visibility Wind Dir Wind Speed Gust Speed Precip Events Conditions
12:15 AM 49.6 °F - 19.8 °F 31% 30.13 in 10.0 mi South 12.7 mph - N/A   Clear
12:35 AM 49.1 °F - 20.3 °F 32% 30.13 in 10.0 mi South 12.7 mph 18.4 mph N/A   Clear
12:55 AM 48.9 °F - 20.3 °F 32% 30.12 in 10.0 mi South 12.7 mph 19.6 mph N/A   Clear
1:15 AM 47.8 °F - 20.8 °F 34% 30.12 in 10.0 mi South 11.5 mph - N/A   Clear
1:35 AM 47.1 °F - 21.2 °F 36% 30.12 in 10.0 mi South 9.2 mph - N/A   Clear
1:55 AM 46.4 °F 41.9 °F 21.6 °F 37% 30.12 in 10.0 mi South 9.2 mph - N/A   Clear
2:15 AM 46.4 °F 41.5 °F 22.5 °F 39% 30.11 in 10.0 mi South 10.4 mph - N/A   Clear
2:35 AM 45.9 °F 41.2 °F 22.8 °F 40% 30.10 in 10.0 mi South 9.2 mph - N/A   Clear
2:55 AM 46.4 °F 41.1 °F 23.5 °F 41% 30.10 in 10.0 mi South 11.5 mph 16.1 mph N/A   Clear
3:15 AM 46.2 °F 40.8 °F 23.9 °F 42% 30.09 in 10.0 mi South 11.5 mph - N/A   Clear
3:55 AM 45.7 °F 40.2 °F 24.8 °F 44% 30.07 in 10.0 mi South 11.5 mph 18.4 mph N/A   Clear
4:15 AM 45.7 °F 40.2 °F 26.4 °F 47% 30.07 in 10.0 mi South 11.5 mph - N/A   Clear
4:35 AM 45.9 °F 40.4 °F 28.4 °F 51% 30.06 in 10.0 mi South 11.5 mph - N/A   Clear
4:55 AM 45.9 °F 40.8 °F 29.3 °F 52% 30.06 in 10.0 mi South 10.4 mph - N/A   Clear
5:15 AM 45.5 °F 39.9 °F 29.8 °F 54% 30.06 in 10.0 mi South 11.5 mph 18.4 mph N/A   Clear
5:35 AM 45.3 °F 39.7 °F 29.8 °F 55% 30.07 in 10.0 mi South 11.5 mph - N/A   Clear
5:55 AM 44.6 °F 38.8 °F 29.8 °F 56% 30.06 in 10.0 mi South 11.5 mph 16.1 mph N/A   Clear
6:15 AM 43.9 °F 38.3 °F 30.0 °F 58% 30.07 in 10.0 mi South 10.4 mph - N/A   Clear
6:35 AM 43.2 °F 37.0 °F 29.8 °F 59% 30.07 in 10.0 mi South 11.5 mph - N/A   Clear
6:55 AM 43.2 °F 38.4 °F 30.2 °F 60% 30.07 in 10.0 mi South 8.1 mph - N/A   Clear
7:15 AM 41.7 °F 37.3 °F 29.8 °F 63% 30.07 in 10.0 mi South 6.9 mph - N/A   Clear
7:35 AM 41.9 °F 36.3 °F 30.2 °F 63% 30.07 in 10.0 mi South 9.2 mph - N/A   Clear
7:55 AM 42.3 °F 36.8 °F 30.2 °F 62% 30.08 in 10.0 mi South 9.2 mph - N/A   Clear
8:15 AM 42.4 °F 36.5 °F 30.2 °F 62% 30.09 in 10.0 mi South 10.4 mph - N/A   Clear
8:35 AM 44.1 °F 37.4 °F 30.9 °F 60% 30.09 in 10.0 mi South 13.8 mph 17.3 mph N/A   Clear
8:55 AM 45.5 °F 39.6 °F 31.1 °F 57% 30.10 in 10.0 mi South 12.7 mph 17.3 mph N/A   Clear
9:15 AM 47.5 °F - 31.6 °F 54% 30.10 in 10.0 mi South 17.3 mph 20.7 mph N/A   Clear
9:35 AM 49.5 °F - 31.6 °F 50% 30.10 in 10.0 mi South 13.8 mph 21.9 mph N/A   Clear
9:55 AM 51.4 °F - 32.0 °F 47% 30.11 in 10.0 mi South 11.5 mph 20.7 mph N/A   Clear
10:15 AM 54.3 °F - 32.0 °F 43% 30.11 in 10.0 mi South 13.8 mph 20.7 mph N/A   Clear
10:35 AM 55.4 °F - 31.8 °F 41% 30.12 in 10.0 mi South 12.7 mph 18.4 mph N/A   Clear
10:55 AM 57.4 °F - 32.0 °F 38% 30.12 in 10.0 mi SSW 13.8 mph 17.3 mph N/A   Clear
11:15 AM 59.7 °F - 32.0 °F 35% 30.12 in 10.0 mi South 12.7 mph - N/A   Clear
11:35 AM 61.7 °F - 31.8 °F 33% 30.11 in 10.0 mi SSW 11.5 mph 17.3 mph N/A   Clear
11:55 AM 63.9 °F - 31.5 °F 30% 30.10 in 10.0 mi SSW 12.7 mph - N/A   Clear
12:15 PM 65.3 °F - 31.6 °F 28% 30.10 in 10.0 mi SSW 11.5 mph 16.1 mph N/A   Clear
12:35 PM 67.6 °F - 31.1 °F 26% 30.09 in 10.0 mi SSW 10.4 mph - N/A   Clear
12:55 PM 69.3 °F - 30.7 °F 24% 30.09 in 10.0 mi South 8.1 mph - N/A   Clear
1:15 PM 71.1 °F - 31.1 °F 23% 30.08 in 10.0 mi SSW 10.4 mph 17.3 mph N/A   Clear
1:35 PM 72.0 °F - 30.2 °F 21% 30.07 in 10.0 mi SSW 10.4 mph - N/A   Clear
1:55 PM 73.2 °F - 29.8 °F 20% 30.07 in 10.0 mi South 10.4 mph 16.1 mph N/A   Clear
2:15 PM 74.1 °F - 29.3 °F 19% 30.06 in 10.0 mi SSW 6.9 mph 16.1 mph N/A   Clear
2:35 PM 75.0 °F - 29.7 °F 19% 30.05 in 10.0 mi South 11.5 mph 18.4 mph N/A   Clear
2:55 PM 75.7 °F - 28.8 °F 18% 30.04 in 10.0 mi SSW 11.5 mph 17.3 mph N/A   Clear
3:15 PM 76.3 °F - 28.9 °F 18% 30.03 in 10.0 mi SSW 9.2 mph 17.3 mph N/A   Clear
3:35 PM 77.5 °F - 28.9 °F 17% 30.03 in 10.0 mi South 12.7 mph 18.4 mph N/A   Clear
3:55 PM 78.4 °F - 28.4 °F 16% 30.02 in 10.0 mi SSW 10.4 mph 18.4 mph N/A   Clear
4:15 PM 77.9 °F - 28.8 °F 16% 30.01 in 10.0 mi South 12.7 mph 19.6 mph N/A   Clear
4:35 PM 78.4 °F - 28.8 °F 16% 30.00 in 10.0 mi South 13.8 mph 19.6 mph N/A   Clear
4:55 PM 77.2 °F - 28.9 °F 17% 29.99 in 10.0 mi South 11.5 mph 21.9 mph N/A   Clear
5:15 PM 77.9 °F - 27.9 °F 16% 29.99 in 10.0 mi SSW 12.7 mph 24.2 mph N/A   Clear
5:35 PM 77.0 °F - 28.0 °F 17% 29.99 in 10.0 mi South 13.8 mph 19.6 mph N/A   Clear
5:55 PM 75.2 °F - 28.6 °F 18% 29.99 in 10.0 mi South 15.0 mph - N/A   Clear
6:15 PM 77.2 °F - 28.9 °F 17% 29.99 in 10.0 mi South 12.7 mph 21.9 mph N/A   Clear
6:35 PM 75.6 °F - 28.9 °F 18% 29.99 in 10.0 mi South 12.7 mph 19.6 mph N/A   Clear
6:55 PM 75.4 °F - 29.3 °F 18% 29.99 in 10.0 mi South 10.4 mph - N/A   Clear
7:15 PM 74.3 °F - 28.9 °F 19% 29.99 in 10.0 mi South 11.5 mph - N/A   Clear
7:35 PM 73.0 °F - 29.3 °F 20% 29.99 in 10.0 mi South 9.2 mph 17.3 mph N/A   Clear
7:55 PM 70.7 °F - 28.9 °F 21% 29.99 in 10.0 mi South 10.4 mph - N/A   Clear
8:15 PM 69.4 °F - 30.4 °F 23% 30.00 in 10.0 mi South 10.4 mph - N/A   Clear
8:35 PM 67.8 °F - 31.5 °F 26% 30.01 in 10.0 mi South 8.1 mph - N/A   Clear
8:55 PM 66.0 °F - 31.8 °F 28% 30.01 in 10.0 mi SSE 5.8 mph - N/A   Clear
9:15 PM 64.9 °F - 32.9 °F 30% 30.02 in 10.0 mi SSE 9.2 mph - N/A   Clear
9:35 PM 63.7 °F - 34.7 °F 34% 30.03 in 10.0 mi SSE 8.1 mph - N/A   Clear
9:55 PM 62.6 °F - 36.0 °F 37% 30.03 in 10.0 mi SSE 11.5 mph - N/A   Clear
10:15 PM 61.0 °F - 36.3 °F 40% 30.04 in 10.0 mi South 6.9 mph - N/A   Clear
10:35 PM 60.3 °F - 37.4 °F 43% 30.05 in 10.0 mi South 10.4 mph - N/A   Clear
10:55 PM 59.5 °F - 38.3 °F 45% 30.06 in 10.0 mi South 8.1 mph - N/A   Clear
11:15 PM 59.0 °F - 40.1 °F 50% 30.07 in 10.0 mi South 16.1 mph 19.6 mph N/A   Clear
11:35 PM 58.3 °F - 40.6 °F 52% 30.07 in 10.0 mi South 12.7 mph 21.9 mph N/A   Clear
11:55 PM 57.2 °F - 40.8 °F 54% 30.07 in 10.0 mi South 16.1 mph 21.9 mph N/A   Clear